Tracking 32139 objects as of 15-Nov-2025
HD Live streaming from Space Station
objects crossing your sky now

STARLINK-35308

Track STARLINK-35308 now!
10-day predictions
STARLINK-35308 is classified as:


NORAD ID: 65848
Int'l Code: 2025-221AB
Perigee: 480.8 km
Apogee: 483.2 km
Inclination: 53.2 °
Period: 94.1 minutes
Semi major axis: 6852 km
RCS: Unknown
Launch date: September 29, 2025
Source: United States (US)
Launch site: AIR FORCE WESTERN TEST RANGE (AFWTR)
Your satellite tracking list
Your tracking list is empty




NASA's NSSDC Master Catalog

Two Line Element Set (TLE):
1 65848U 25221AB  25318.27161759  .00138624  00000-0  45886-2 0  9997
2 65848  53.1586 264.3502 0001770 119.0713 241.0466 15.30322138  8414
Source of the keplerian elements: AFSPC